Regional Weather Roundup
Issued by NWS Sioux Falls, SD

Home | Current Version | Previous Version | Text Only | Print | Product List | Glossary Off
Versions: 1 2 3 4 5 6 7 8 9 10 11 12 13 14 15 16 17 18 19 20 21 22 23 24 25 26 27 28 29 30 31 32 33 34 35 36 37 38 39 40 41 42 43 44 45 46 47 48 49 50

000
ASUS43 KFSD 270302
RWRFSD

WEATHER ROUNDUP FOR SE SOUTH DAKOTA/SW MINNESOTA/NW IOWA
NATIONAL WEATHER SERVICE SIOUX FALLS SD
900 PM CST FRI DEC 26 2014

NOTE: "FAIR" INDICATES FEW OR NO CLOUDS BELOW 12,000 FEET WITH NO
SIGNIFICANT WEATHER AND OR OBSTRUCTIONS TO VISIBILITY.


SDZ038>040-050-052>070-270400-
SOUTHEAST SOUTH DAKOTA

CITY           SKY/WX    TMP DP  RH WIND       PRES   REMARKS
CHAMBERLAIN    NOT AVBL
HURON          CLOUDY    19  15  84 N15       30.17R WCI   5
MADISON        LGT SNOW  19  19 100 N16       30.08F WCI   5
MITCHELL       LGT SNOW  22  20  92 N15       30.16R FOG     WCI   9
SIOUX FALLS    LGT SNOW  23  20  88 N12       30.08S FOG     WCI  12
WINNER         LGT SNOW  19  14  81 N15       30.14F WCI   5
YANKTON        FAIR      23  19  86 N12       30.11F WCI  12
$$

MNZ071-072-080-081-089-090-097-098-270400-
SOUTHWEST MINNESOTA

CITY           SKY/WX    TMP DP  RH WIND       PRES   REMARKS
FAIRMONT       CLOUDY    28  25  86 N15       30.03F WCI  17
JACKSON        FLURRIES  28  27  93 VRB10     30.04F WCI  19
LUVERNE        LGT SNOW  27  23  86 N12       30.07S WCI  16
MARSHALL       CLOUDY    23  18  80 N17       30.10F WCI   9
MONTEVIDEO     CLOUDY    25  21  86 NE12      30.15S WCI  14
PIPESTONE      LGT SNOW  21  19  93 NE13      30.06S WCI   9
REDWOOD FALLS  LGT SNOW  26  24  92 N8        30.10S FOG     WCI  18
TRACY          LGT SNOW  25  24  95 N14       30.08F WCI  13
WINDOM         FLURRIES  27  25  93 N14       30.05S WCI  15
WORTHINGTON    CLOUDY    25 -22  12 N10       30.05F WCI  15
$$

IAZ001>003-012>014-020>022-031-032-NEZ013-014-SDZ071-270400-
NORTHWEST IOWA

CITY           SKY/WX    TMP DP  RH WIND       PRES   REMARKS
CHEROKEE       LGT SNOW  29  28  95 N9G20     30.01F WCI  20
DENISON        CLOUDY    30  30 100 NE10G20   29.97S FOG     WCI  21
ESTHERVILLE    CLOUDY    27  25  92 N16       30.02F WCI  15
LE MARS        LGT SNOW  27  27 100 N15       30.05S WCI  15
SIOUX CITY     LGT SNOW  29  25  85 N18       30.04F FOG     WCI  16
SPENCER        CLOUDY    29  24  82 N15       30.03F WCI  18
$$

ABBREVIATIONS USED IN REMARKS
   TC - TEMPERATURE IN CELSIUS
  WCI - WIND CHILL INDEX
   HX - HEAT INDEX
  VSB - VISIBILITY




USA.gov is the U.S. government's official web portal to all federal, state and local government web resources and services.